Location: La Oliva
(42.2466°N, 2.9955°E)
Time: 08:09:59
(UTC+00:00)

Cosmos 2219 - Pass Details

Date: 22 April 2021
Orbit: 834 x 859 km, 71.1° (Epoch: 07 May)

Event Time Altitude Azimuth Distance (km) Brightness Sun altitude
Rises 20:48:24 0° 219° (SW) 3,369 6.3 -21.7°
Reaches altitude 10° 20:50:55 10° 225° (SW) 2,438 5.6 -22.1°
Maximum altitude 20:56:18 48° 299° (WNW) 1,080 4.1 -22.8°
Drops below altitude 10° 21:01:44 10° 14° (NNE) 2,457 6.0 -23.5°
Sets 21:04:17 0° 20° (NNE) 3,397 6.7 -23.8°
